K9BM Weather Reports


Display with metric or nautical units.
time (UTC)temp
F
wind
direction
speed
MPH
gust
MPH
rain 1hr
in
rain 24hr
in
rain mn
in
humidity
%
barometer
mb
20260506044005 34 203 3.0 6.0 0.00 0.01 0.01 81 1020.1
20260506043505 34 199 5.0 7.0 0.00 0.01 0.01 81 1020.1
20260506043005 34 199 5.0 7.0 0.00 0.01 0.01 81 1020.1
20260506042505 33 197 5.0 6.0 0.00 0.01 0.01 81 1020.1
20260506042005 33 195 5.0 6.0 0.00 0.01 0.01 79 1020.1
20260506041505 34 196 5.0 5.0 0.00 0.01 0.01 78 1020.0
20260506041006 34 217 3.0 5.0 0.00 0.01 0.01 77 1020.0
20260506040005 34 295 1.0 3.0 0.00 0.01 0.01 74 1020.0
20260506035505 35 279 2.0 3.0 0.00 0.01 0.01 75 1019.9
20260506035005 35 282 2.0 3.0 0.00 0.01 0.01 76 1019.9
20260506034506 35 274 3.0 3.0 0.00 0.01 0.01 76 1019.9
20260506034006 35 280 3.0 3.0 0.00 0.01 0.01 76 1019.9
20260506033505 35 281 2.0 3.0 0.00 0.01 0.01 76 1019.8
20260506031005 35 319 1.0 3.0 0.00 0.01 0.01 73 1019.5
20260506030005 36 326 0.0 2.0 0.00 0.01 0.01 71 1019.4
20260506025505 36 323 0.0 3.0 0.00 0.01 0.01 71 1019.4
20260506024505 36 331 2.0 6.0 0.00 0.01 0.01 71 1019.1
20260506023505 37 323 3.0 6.0 0.00 0.01 0.01 68 1019.0
20260506022505 38 343 5.0 6.0 0.00 0.01 0.01 64 1018.8
20260506022006 38 5 3.0 6.0 0.00 0.01 0.01 60 1018.7
20260506021505 38 8 3.0 9.0 0.00 0.01 0.01 60 1018.7
20260506021005 39 11 5.0 12.0 0.00 0.01 0.01 60 1018.6
20260506020005 39 351 7.0 12.0 0.00 0.01 0.01 59 1018.5
20260506015505 39 2 7.0 13.0 0.00 0.01 0.01 58 1018.4
20260506014505 39 358 8.0 17.0 0.00 0.01 0.01 58 1018.2
20260506014005 39 355 10.0 18.0 0.00 0.01 0.01 58 1018.1
20260506013005 40 359 11.0 15.0 0.00 0.01 0.01 57 1018.1
20260506012505 41 5 6.0 13.0 0.00 0.01 0.01 55 1018.1
20260506012005 41 357 7.0 12.0 0.00 0.01 0.01 56 1018.0
20260506011505 41 13 3.0 12.0 0.00 0.01 0.01 59 1017.9
20260506011005 41 2 5.0 12.0 0.00 0.01 0.01 58 1017.8
20260506010005 42 20 6.0 10.0 0.00 0.01 0.01 59 1017.7
20260506005505 41 9 6.0 10.0 0.00 0.01 0.01 60 1017.8
20260506005005 41 2 5.0 9.0 0.00 0.01 0.01 62 1017.7
20260506004506 41 358 3.0 9.0 0.00 0.01 0.01 63 1017.7
20260506004006 41 290 4.0 9.0 0.00 0.01 0.01 65 1017.7
20260506003505 40 329 2.0 9.0 0.00 0.01 0.01 66 1017.6
20260506002505 39 336 5.0 12.0 0.00 0.01 0.01 68 1017.6
20260506001505 39 332 5.0 10.0 0.00 0.01 0.01 70 1017.6
20260506001005 39 328 6.0 10.0 0.00 0.01 0.01 71 1017.5
20260506000005 38 320 6.0 18.0 0.00 0.01 0.01 74 1017.6
20260505235505 37 336 9.0 18.0 0.00 0.01 0.01 74 1017.7
20260505234505 37 331 11.0 15.0 0.00 0.01 0.01 75 1017.5
20260505234005 37 338 10.0 16.0 0.00 0.01 0.01 76 1017.5
20260505233005 36 335 12.0 22.0 0.00 0.01 0.01 79 1017.3
20260505232505 36 347 12.0 23.0 0.00 0.01 0.01 79 1017.2
20260505232005 36 346 18.0 24.0 0.00 0.01 0.01 78 1017.2
20260505231505 37 352 16.0 24.0 0.00 0.01 0.01 74 1017.0
20260505231005 41 347 14.0 20.0 0.00 0.01 0.01 65 1017.0
20260505230005 43 195 5.0 7.0 0.00 0.01 0.01 61 1016.1
20260505225005 43 189 4.0 12.0 0.00 0.01 0.01 59 1016.1
20260505224505 44 192 6.0 12.0 0.00 0.01 0.01 61 1016.1
20260505224005 44 161 4.0 9.0 0.00 0.01 0.01 63 1016.1
20260505223505 43 192 6.0 10.0 0.00 0.01 0.01 64 1016.2
20260505222505 43 185 6.0 12.0 0.00 0.01 0.01 65 1016.1
20260505222006 43 166 7.0 12.0 0.00 0.01 0.01 64 1016.1
20260505221505 43 202 6.0 10.0 0.00 0.01 0.01 67 1016.1
20260505221005 43 165 7.0 10.0 0.00 0.01 0.01 68 1016.1
20260505220005 42 189 5.0 10.0 0.00 0.01 0.01 72 1016.2
20260505215505 41 197 6.0 10.0 0.00 0.01 0.01 74 1016.3
20260505214005 40 197 6.0 12.0 0.00 0.01 0.01 77 1016.2
20260505213005 39 243 8.0 12.0 0.00 0.01 0.01 82 1016.2
20260505212505 39 234 7.0 12.0 0.00 0.01 0.01 85 1016.2
20260505211505 38 234 6.0 12.0 0.00 0.01 0.01 86 1016.2
20260505211005 37 203 5.0 12.0 0.00 0.01 0.01 86 1016.4
20260505210004 37 216 5.0 20.0 0.00 0.01 0.01 85 1016.5
20260505205505 37 233 7.0 20.0 0.00 0.01 0.01 82 1016.6
20260505205005 37 247 8.0 14.0 0.00 0.01 0.01 84 1016.4
20260505204505 37 224 6.0 9.0 0.00 0.01 0.01 84 1016.3
20260505204005 37 244 6.0 10.0 0.00 0.01 0.01 84 1016.3
20260505203505 37 241 6.0 10.0 0.00 0.01 0.01 84 1016.2
20260505203005 37 220 6.0 10.0 0.01 0.01 0.01 84 1016.2
20260505202505 38 238 6.0 9.0 0.01 0.01 0.01 84 1016.3
20260505202006 38 206 5.0 8.0 0.01 0.01 0.01 84 1016.4
20260505201005 37 273 5.0 7.0 0.01 0.01 0.01 82 1016.4
20260505200005 37 316 2.0 8.0 0.01 0.01 0.01 87 1016.5
20260505195505 37 320 3.0 5.0 0.01 0.01 0.01 88 1016.5
20260505194505 36 291 3.0 9.0 0.01 0.01 0.01 88 1016.5
20260505194006 36 344 7.0 10.0 0.01 0.01 0.01 87 1016.6
20260505193506 36 333 6.0 10.0 0.01 0.01 0.01 88 1016.7
20260505192505 36 4 5.0 12.0 0.00 0.00 0.00 86 1016.8
20260505192005 37 2 7.0 12.0 0.00 0.00 0.00 85 1016.9
20260505191505 37 22 6.0 10.0 0.00 0.00 0.00 85 1016.8
20260505191005 37 27 6.0 10.0 0.00 0.00 0.00 84 1016.8
20260505185505 38 350 10.0 21.0 0.00 0.00 0.00 74 1016.6
20260505185005 39 10 10.0 22.0 0.00 0.00 0.00 70 1016.4
20260505184505 41 352 14.0 22.0 0.00 0.00 0.00 59 1016.2
20260505184005 42 329 9.0 15.0 0.00 0.00 0.00 56 1015.9
20260505183505 42 335 9.0 13.0 0.00 0.00 0.00 57 1015.8
20260505183006 42 332 5.0 12.0 0.00 0.00 0.00 56 1015.8
20260505182504 42 328 6.0 14.0 0.00 0.00 0.00 55 1015.8
20260505182005 43 349 7.0 14.0 0.00 0.00 0.00 54 1015.8
20260505181505 43 302 7.0 20.0 0.00 0.00 0.00 54 1015.8
20260505180005 45 330 5.0 12.0 0.00 0.00 0.00 45 1015.6
20260505175505 45 164 2.0 8.0 0.00 0.00 0.00 46 1015.6
20260505175005 45 297 5.0 8.0 0.00 0.00 0.00 47 1015.8
20260505174505 44 240 4.0 12.0 0.00 0.00 0.00 46 1015.7
20260505174005 43 153 2.0 12.0 0.00 0.00 0.00 50 1015.8
20260505173505 43 254 5.0 12.0 0.00 0.00 0.00 50 1015.8
20260505173005 43 260 5.0 13.0 0.00 0.00 0.00 50 1015.9
20260505172005 42 338 3.0 10.0 0.00 0.00 0.00 50 1016.1
20260505171505 42 287 4.0 8.0 0.00 0.00 0.00 51 1016.2
20260505171006 41 304 3.0 7.0 0.00 0.00 0.00 52 1016.2
20260505170005 40 336 1.0 10.0 0.00 0.00 0.00 51 1016.3
20260505164504 41 271 2.0 7.0 0.00 0.00 0.00 52 1016.3
20260505163505 40 313 1.0 5.0 0.00 0.00 0.00 51 1016.4
20260505163006 40 320 3.0 5.0 0.00 0.00 0.00 52 1016.4
20260505162006 40 319 1.0 5.0 0.00 0.00 0.00 52 1016.4
20260505161505 40 327 2.0 8.0 0.00 0.00 0.00 52 1016.4
20260505161005 40 322 4.0 8.0 0.00 0.00 0.00 52 1016.3
20260505153005 40 26 2.0 9.0 0.00 0.00 0.00 54 1016.2
20260505152505 40 30 3.0 8.0 0.00 0.00 0.00 55 1016.2
20260505151005 39 20 3.0 8.0 0.00 0.00 0.00 53 1016.2
20260505124005 31 42 2.0 3.0 0.00 0.00 0.00 77 1015.4
20260505123005 31 41 2.0 3.0 0.00 0.00 0.00 77 1015.2
20260505122505 31 41 2.0 3.0 0.00 0.00 0.00 77 1015.3
20260505120005 31 40 2.0 3.0 0.00 0.00 0.00 74 1015.2
20260505115005 30 37 2.0 5.0 0.00 0.00 0.00 74 1015.3
20260505114505 30 37 3.0 5.0 0.00 0.00 0.00 74 1015.4
20260505114005 31 36 3.0 5.0 0.00 0.00 0.00 72 1015.4
20260505113505 31 36 3.0 5.0 0.00 0.00 0.00 70 1015.4
20260505113005 32 38 3.0 5.0 0.00 0.00 0.00 70 1015.2
20260505112504 32 54 3.0 6.0 0.00 0.00 0.00 70 1015.2
20260505112004 32 55 3.0 6.0 0.00 0.00 0.00 70 1015.2
20260505111505 32 57 5.0 6.0 0.00 0.00 0.00 70 1015.1
20260505111005 32 61 3.0 5.0 0.00 0.00 0.00 70 1015.1
20260505102005 32 82 3.0 7.0 0.00 0.00 0.00 71 1015.3
20260505101505 31 90 4.0 8.0 0.00 0.00 0.00 71 1015.3
20260505101005 31 103 6.0 8.0 0.00 0.00 0.00 71 1015.2
20260505100004 32 100 4.0 7.0 0.00 0.00 0.00 69 1015.2
20260505095504 32 107 3.0 7.0 0.00 0.00 0.00 68 1015.2
20260505095005 32 105 6.0 7.0 0.00 0.00 0.00 68 1015.1
20260505094504 33 93 4.0 6.0 0.00 0.00 0.00 67 1015.1
20260505093504 34 93 5.0 6.0 0.00 0.00 0.00 64 1014.9
20260505093005 34 83 3.0 6.0 0.00 0.00 0.00 64 1014.9
20260505092504 34 76 3.0 6.0 0.00 0.00 0.00 63 1014.8
20260505092004 34 71 3.0 6.0 0.00 0.00 0.00 63 1014.8
20260505091005 34 80 1.0 3.0 0.00 0.00 0.00 62 1014.8
20260505090005 34 81 1.0 2.0 0.00 0.00 0.00 62 1014.8
20260505085505 34 81 0.0 2.0 0.00 0.00 0.00 62 1014.7
20260505085005 34 81 1.0 3.0 0.00 0.00 0.00 62 1014.7
20260505084004 35 81 2.0 7.0 0.00 0.00 0.00 60 1014.7
20260505083504 35 80 3.0 7.0 0.00 0.00 0.00 60 1014.6
20260505083005 36 79 5.0 8.0 0.00 0.00 0.00 59 1014.6
20260505082505 36 61 6.0 12.0 0.00 0.00 0.00 58 1014.4
20260505082005 36 52 6.0 12.0 0.00 0.00 0.00 58 1014.3
20260505081505 37 40 6.0 12.0 0.00 0.00 0.00 57 1014.3
20260505081004 38 39 7.0 12.0 0.00 0.00 0.00 55 1014.5
20260505075505 39 33 5.0 10.0 0.00 0.00 0.00 53 1014.3
20260505075005 40 26 5.0 12.0 0.00 0.00 0.00 53 1014.3
20260505074504 40 16 7.0 13.0 0.00 0.00 0.00 52 1014.3
20260505074005 41 24 9.0 13.0 0.00 0.00 0.00 50 1014.2
20260505073504 41 54 3.0 5.0 0.00 0.00 0.00 51 1014.1
20260505073005 41 75 2.0 5.0 0.00 0.00 0.00 49 1013.9
20260505072505 41 81 3.0 5.0 0.00 0.00 0.00 49 1013.8
20260505072004 41 83 3.0 3.0 0.00 0.00 0.00 50 1013.8
20260505071504 41 84 2.0 3.0 0.00 0.00 0.00 50 1013.8
20260505071005 42 84 2.0 5.0 0.00 0.00 0.00 51 1013.9
20260505070005 42 81 3.0 6.0 0.00 0.00 0.00 49 1013.8
20260505065505 42 89 2.0 7.0 0.00 0.00 0.00 49 1013.7
20260505064504 42 89 3.0 6.0 0.00 0.00 0.00 50 1013.7
20260505063504 43 53 1.0 8.0 0.00 0.00 0.00 49 1013.6
20260505062504 43 71 3.0 6.0 0.00 0.00 0.00 49 1013.7
20260505062005 43 79 2.0 3.0 0.00 0.00 0.00 50 1013.7
20260505061505 43 79 2.0 3.0 0.00 0.00 0.00 50 1013.7
20260505061005 43 79 2.0 6.0 0.00 0.00 0.00 50 1013.7
20260505060005 43 67 3.0 7.0 0.00 0.00 0.00 50 1013.6
20260505055504 43 52 5.0 7.0 0.00 0.00 0.00 49 1013.6
20260505055004 43 98 3.0 6.0 0.00 0.00 0.00 51 1013.6
20260505054504 43 83 3.0 12.0 0.00 0.00 0.00 51 1013.5
20260505054004 43 83 4.0 12.0 0.00 0.00 0.00 50 1013.4
20260505053505 43 88 5.0 8.0 0.00 0.00 0.00 52 1013.3
20260505052505 43 42 5.0 10.0 0.00 0.00 0.00 50 1013.3
20260505052005 43 82 4.0 12.0 0.00 0.00 0.00 51 1013.2
20260505051504 44 56 4.0 12.0 0.00 0.00 0.00 50 1013.3